Location: Aufkirchen
(47.9603°N, 11.3653°E)
Time: 04:44:35
(UTC+01:00)

Vanguard 3 - Pass Details

Date: 28 November 2020
Orbit: 508 x 3262 km, 33.3° (Epoch: 23 January)

Event Time Altitude Azimuth Distance (km) Brightness Sun altitude
Rises 02:38:53 0° 248° (WSW) 3,593 - -49.0°
Reaches altitude 10° 02:43:31 10° 215° (SW) 3,179 - -48.3°
Maximum altitude 02:45:55 12° 198° (SSW) 3,341 - -47.9°
Drops below altitude 10° 02:48:40 10° 181° (S) 3,776 - -47.5°
Exits shadow 02:52:55 - 163° (SSE) 4,749 11.0 -46.9°
Sets 02:56:05 0° 154° (SSE) 5,576 11.5 -46.4°
